This is the latest recevied weather packets stored in our database for station/object K4KMJ. If no packets are shown the sender has not sent any weather packets the latest 10 day(s).
| Time | Temp. | Humidity | Pressure | Rain* | Wind** | Luminosity | Snow |
|---|---|---|---|---|---|---|---|
| 1788620249 | 27.22° C | 99% | 1017.3 hPa | 0 mm | - | 285 W/m² | - |
| 1788619945 | 27.22° C | 99% | 1017.2 hPa | 0 mm | - | 298 W/m² | - |
| 1788619643 | 27.22° C | 99% | 1017.1 hPa | 0 mm | - | 345 W/m² | - |
| 1788619338 | 26.67° C | 99% | 1017.1 hPa | 0 mm | - | 248 W/m² | - |
| 1788619038 | 26.67° C | 99% | 1017.1 hPa | 0 mm | - | 229 W/m² | - |
| 1788618738 | 26.67° C | 99% | 1017 hPa | 0 mm | - | 223 W/m² | - |
| 1788618436 | 26.67° C | 99% | 1016.9 hPa | 0 mm | - | 207 W/m² | - |
| 1788618131 | 26.11° C | 99% | 1017 hPa | 0 mm | - | 182 W/m² | - |
| 1788617827 | 26.11° C | 99% | 1016.9 hPa | 0 mm | - | 161 W/m² | - |
| 1788617522 | 26.11° C | 99% | 1016.8 hPa | 0 mm | - | 146 W/m² | - |
| 1788617217 | 26.11° C | 99% | 1016.9 hPa | 0 mm | - | 144 W/m² | - |
| 1788616912 | 26.11° C | 99% | 1017 hPa | 0 mm | - | 153 W/m² | - |
| 1788616606 | 26.11° C | 99% | 1016.9 hPa | 0 mm | - | 153 W/m² | - |
| 1788616302 | 26.11° C | 99% | 1016.8 hPa | 0 mm | - | 145 W/m² | - |
| 1788615996 | 26.11° C | 99% | 1016.9 hPa | 0 mm | - | 136 W/m² | - |
| 1788615695 | 26.11° C | 99% | 1016.9 hPa | 0 mm | - | 136 W/m² | - |
| 1788615391 | 26.11° C | 99% | 1016.7 hPa | 0 mm | - | 138 W/m² | - |
| 1788615090 | 25.56° C | 99% | 1016.8 hPa | 0 mm | - | 136 W/m² | - |
| 1788614784 | 25.56° C | 99% | 1016.8 hPa | 0 mm | - | 139 W/m² | - |
| 1788614479 | 26.11° C | 99% | 1016.8 hPa | 0 mm | - | 148 W/m² | - |
| 1788614168 | 25.56° C | 99% | 1016.6 hPa | 0 mm | - | 202 W/m² | - |
| 1788613863 | 25.56° C | 99% | 1016.8 hPa | 0 mm | - | 145 W/m² | - |
| 1788613562 | 25.56° C | 99% | 1016.7 hPa | 0 mm | - | 130 W/m² | - |
| 1788613257 | 25.56° C | 99% | 1016.5 hPa | 0 mm | - | 136 W/m² | - |
| 1788612957 | 25.56° C | 99% | 1016.6 hPa | 0 mm | - | 125 W/m² | - |
* Rain latest hour (hover to see other rain measurements)
** Current wind speed in m/s (hover to see current wind gust speed)